STARLINK-34248, 64928

Orbit data source: Space-Track

STARLINK-34248, 64928 is a payload satellite owned by SpaceX/Seattle (US) in LEO that was launched on Sat, 26 Jul 2025 UTC via an FALCON 9 launch vehicle from the Air Force Eastern Test Range (AFETR). Payload-class satellites include a variety of spacecraft equipped with specific instruments for various scientific and technological missions. These include communications satellites like Starlink; space stations such as the ISS; scientific satellites like the Hubble; Earth observation satellites from companies like Planet Labs, Umbra, and HawkEye 360; GPS; miniature CubeSats for education and research; and military/defense satellites.

Loading next visibility...
Identifier
64928, 2025-157AA
Orbit
LEO
Country
Flag of USUS
Related business
Manufacturer
SpaceX/Seattle
Mission
Operational Commercial Communications
Bus & Motor
STARLINK V2MO, Unknown motor
Mass
575 kg wet, ~530 kg dry
Launch date (UTC)
2025-07-26 (10 months ago)
Launch vehicle
FALCON 9
Launch site
Air Force Eastern Test Range (AFETR)
Object type
Payload
Rocket body
Debris
Shape & HBR
Box + 2 Pan, 17.7 m
Radar Cross Section
36.964 m², Large (>1 m²)

Expand to show TLE details & history
Last TLE update: 22 hours ago

TLE from 22 hours ago
0 STARLINK-34248
1 64928U 25157AA  26144.99341985  .00026837  00000-0  91474-3 0  9998
2 64928  53.1584 351.4224 0000693  60.1344 299.9725 15.30207932 47808
Epoch: 2026-05-24T23:50Z
TLE epoch observation values (Epoch: 2026-05-24T23:50:31.475Z)
Latitude
-0.00004°
Longitude
111.20363°
Altitude
475.854 km
Speed
7.629 km/s
True Right ascension
23h 25m 41s
True Declination
0° 00' 00"
Sunlit
Object was in daylight at epoch
Visualization orbit readout
Latitude
Unknown
Longitude
Unknown
Altitude
Unknown
Speed
Unknown
Apparent Right ascension
Unknown
Apparent Declination
Unknown
Sunlit
N/A
Visualization observer readout
Local Sidereal Time
07:05:00
Azimuth
Unknown
Elevation
Unknown
Doppler factor
Unknown
Orbital elements
Apogee altitude
475.923 km
Perigee altitude
474.973 km
Semi-major axis
6,853.585 km
Eccentricity
0.00007
Inclination
53.1584°
RAAN
351.4224°
Arg. of periapsis
60.1344°
True anomaly
299.96562°
Mean anomaly
299.9725°
Eccentric anomaly
299.96906°
Mean motion
3.82531 °/min
Orbital period
94.11 mins
BSTAR
0.00091474
Loading maneuver chart data...
Computing Atmospheric mass density...
Loading historical data...
Loading historical data...
Loading historical data...
Loading historical data...
Loading historical data...
Loading historical data...
Loading historical data...

Documentation

Showing up to 5 results
|